Location: Ferques
(50.8300°N, 1.7599°E)
Time: 21:35:49
(UTC+00:00)

SeaSat 1 - Pass Details

Date: 19 May 2025
Orbit: 738 x 740 km, 108.0° (Epoch: 18 June)

Event Time Altitude Azimuth Distance (km) Brightness Sun altitude
Exits shadow 23:16:21 15° 230° (SW) 1,917 4.3 -18.8°
Maximum altitude 23:18:06 18° 256° (WSW) 1,770 4.3 -18.8°
Drops below altitude 10° 23:21:24 10° 299° (WNW) 2,257 5.4 -18.9°
Sets 23:24:24 0° 318° (NW) 3,186 6.6 -19.0°
